Location: North Bay Shore
(40.7362°N, 73.2626°W)
Time: 10:10:33
(UTC+00:00)

CZ-2D R/B - Pass Details

Date: 29 October 2020
Orbit: 521 x 538 km, 97.4° (Epoch: 23 November)

Event Time Altitude Azimuth Distance (km) Brightness Sun altitude
Rises 23:39:52 0° 182° (S) 2,647 6.8 -20.9°
Reaches altitude 10° 23:42:03 10° 189° (S) 1,761 6.0 -21.3°
Maximum altitude 23:45:40 42° 261° (W) 758 4.5 -22.0°
Drops below altitude 10° 23:49:18 10° 334° (NNW) 1,768 6.2 -22.7°
Sets 23:51:30 0° 341° (NNW) 2,660 7.1 -23.1°
